When you browse on this site, cookies collect data to enhance your experience and personalize the content and advertising you see.
Visit our Privacy Policy to learn more. By continuing to use the site, you agree to this use of cookies and data.
  • In Czech Republic
  • List of Countries
  • For 7 days
  • Water Temperature
  • Weather Map
  • Weather Widgets
  • user-avatar
    Login

    Hourly Weather San Pedro Sula

    Today, 26 February, Wednesday

    Time Temperature Precipitation Wind Pressure Humidity
    00:00 +24°C° 0 mm 1 mps 743 mmHg 78%
    01:00 +24°C° 0 mm 1 mps 743 mmHg 79%
    02:00 +24°C° 0 mm 1 mps 743 mmHg 79%
    03:00 +24°C° 0 mm 1 mps 743 mmHg 80%
    04:00 +23°C° 0 mm 1 mps 743 mmHg 81%
    05:00 +23°C° 0 mm 1 mps 744 mmHg 82%
    06:00 +23°C° 0 mm 1 mps 744 mmHg 82%
    07:00 +25°C° 0 mm 1 mps 745 mmHg 75%
    08:00 +28°C° 0 mm 1 mps 745 mmHg 67%
    09:00 +30°C° 0 mm 1 mps 746 mmHg 59%
    10:00 +32°C° 0 mm 1 mps 745 mmHg 54%
    11:00 +33°C° 0 mm 1 mps 745 mmHg 49%
    12:00 +35°C° 0 mm 1 mps 745 mmHg 44%
    13:00 +35°C° 0 mm 1 mps 744 mmHg 46%
    14:00 +35°C° 0 mm 2 mps 743 mmHg 48%
    15:00 +35°C° 0 mm 2 mps 742 mmHg 50%
    16:00 +32°C° 0 mm 2 mps 743 mmHg 58%
    17:00 +30°C° 0 mm 1 mps 743 mmHg 67%
    18:00 +28°C° 0 mm 1 mps 743 mmHg 75%
    19:00 +27°C° 0 mm 1 mps 744 mmHg 78%
    20:00 +26°C° 0 mm 1 mps 745 mmHg 80%
    21:00 +25°C° 0 mm 1 mps 746 mmHg 83%
    22:00 +25°C° 0.1 mm 1 mps 746 mmHg 84%
    23:00 +25°C° 0.1 mm 1 mps 747 mmHg 86%

    Tomorrow, 27 February, Thursday

    Time Temperature Precipitation Wind Pressure Humidity
    00:00 +24°C° 0.1 mm 1 mps 747 mmHg 87%
    01:00 +24°C° 1.8 mm 1 mps 747 mmHg 90%
    02:00 +24°C° 1.8 mm 1 mps 747 mmHg 93%
    03:00 +24°C° 1.8 mm 2 mps 747 mmHg 96%
    04:00 +24°C° 9 mm 2 mps 747 mmHg 97%
    05:00 +24°C° 9 mm 2 mps 747 mmHg 98%
    06:00 +24°C° 9 mm 2 mps 748 mmHg 99%
    07:00 +24°C° 7 mm 3 mps 748 mmHg 98%
    08:00 +24°C° 7 mm 3 mps 749 mmHg 98%
    09:00 +22°C° 7 mm 3 mps 750 mmHg 98%
    10:00 +22°C° 4.1 mm 3 mps 750 mmHg 97%
    11:00 +21°C° 4.1 mm 3 mps 750 mmHg 97%
    12:00 +21°C° 4.1 mm 3 mps 750 mmHg 97%
    13:00 +20°C° 1.5 mm 2 mps 750 mmHg 97%
    14:00 +20°C° 1.5 mm 2 mps 750 mmHg 97%
    15:00 +20°C° 1.5 mm 2 mps 750 mmHg 97%
    16:00 +20°C° 0.5 mm 2 mps 750 mmHg 97%
    17:00 +19°C° 0.5 mm 2 mps 750 mmHg 96%
    18:00 +19°C° 0.5 mm 2 mps 751 mmHg 96%
    19:00 +19°C° 0.2 mm 2 mps 751 mmHg 96%
    20:00 +19°C° 0.2 mm 2 mps 751 mmHg 96%
    21:00 +19°C° 0.2 mm 2 mps 752 mmHg 95%
    22:00 +20°C° 0.1 mm 1 mps 752 mmHg 95%
    23:00 +20°C° 0.1 mm 1 mps 752 mmHg 95%

    Day after tomorrow, 28 February, Friday

    Time Temperature Precipitation Wind Pressure Humidity
    00:00 +20°C° 0.1 mm 1 mps 751 mmHg 95%
    01:00 +20°C° 0.1 mm 1 mps 751 mmHg 95%
    02:00 +20°C° 0.1 mm 1 mps 751 mmHg 95%
    03:00 +20°C° 0.1 mm 1 mps 750 mmHg 95%
    04:00 +20°C° 0.2 mm 1 mps 750 mmHg 95%
    05:00 +20°C° 0.2 mm 1 mps 751 mmHg 95%
    06:00 +20°C° 0.2 mm 1 mps 751 mmHg 96%
    07:00 +20°C° 0.3 mm 1 mps 751 mmHg 96%
    08:00 +20°C° 0.3 mm 1 mps 752 mmHg 96%
    09:00 +20°C° 0.3 mm 1 mps 752 mmHg 96%
    10:00 +20°C° 0.3 mm 1 mps 752 mmHg 95%
    11:00 +21°C° 0.3 mm 1 mps 752 mmHg 95%
    12:00 +21°C° 0.3 mm 1 mps 751 mmHg 94%
    13:00 +21°C° 0.1 mm 1 mps 751 mmHg 94%
    14:00 +21°C° 0.1 mm 1 mps 750 mmHg 95%
    15:00 +21°C° 0.1 mm 1 mps 750 mmHg 95%
    16:00 +20°C° 0.1 mm 1 mps 750 mmHg 95%
    17:00 +18°C° 0.1 mm 0 mps 750 mmHg 94%
    18:00 +18°C° 0.1 mm 0 mps 751 mmHg 94%
    19:00 +18°C° 0 mm 0 mps 751 mmHg 93%
    20:00 +18°C° 0 mm 0 mps 751 mmHg 92%
    21:00 +20°C° 0 mm 1 mps 752 mmHg 92%
    22:00 +20°C° 0 mm 1 mps 752 mmHg 91%
    23:00 +20°C° 0 mm 1 mps 752 mmHg 90%

    29 February, Saturday

    Time Temperature Precipitation Wind Pressure Humidity
    00:00 +20°C° 0 mm 1 mps 751 mmHg 89%
    01:00 +20°C° 0 mm 1 mps 751 mmHg 89%
    02:00 +20°C° 0 mm 1 mps 751 mmHg 89%
    03:00 +20°C° 0 mm 1 mps 750 mmHg 88%
    04:00 +20°C° 0.2 mm 1 mps 750 mmHg 90%
    05:00 +20°C° 0.2 mm 1 mps 751 mmHg 91%
    06:00 +20°C° 0.2 mm 1 mps 751 mmHg 92%
    07:00 +20°C° 0.7 mm 1 mps 751 mmHg 93%
    08:00 +20°C° 0.7 mm 1 mps 752 mmHg 95%
    09:00 +20°C° 0.7 mm 1 mps 752 mmHg 96%
    10:00 +20°C° 1.2 mm 1 mps 752 mmHg 96%
    11:00 +20°C° 1.2 mm 1 mps 751 mmHg 96%
    12:00 +20°C° 1.2 mm 1 mps 751 mmHg 97%
    13:00 +20°C° 0.7 mm 1 mps 751 mmHg 97%
    14:00 +20°C° 0.7 mm 1 mps 750 mmHg 96%
    15:00 +18°C° 0.7 mm 0 mps 750 mmHg 96%
    16:00 +18°C° 0.7 mm 0 mps 750 mmHg 96%
    17:00 +18°C° 0.7 mm 0 mps 750 mmHg 96%
    18:00 +18°C° 0.7 mm 0 mps 750 mmHg 97%
    19:00 +18°C° 0.6 mm 0 mps 750 mmHg 96%
    20:00 +20°C° 0.6 mm 1 mps 751 mmHg 96%
    21:00 +20°C° 0.6 mm 1 mps 751 mmHg 96%
    22:00 +20°C° 0.7 mm 1 mps 751 mmHg 96%
    23:00 +20°C° 0.7 mm 1 mps 751 mmHg 97%

    1 March, Sunday

    Time Temperature Precipitation Wind Pressure Humidity
    00:00 +20°C° 0.7 mm 1 mps 750 mmHg 97%
    01:00 +20°C° 0.6 mm 1 mps 750 mmHg 97%
    02:00 +18°C° 0.6 mm 0 mps 749 mmHg 97%
    03:00 +18°C° 0.6 mm 0 mps 749 mmHg 97%
    04:00 +18°C° 0.2 mm 0 mps 749 mmHg 97%
    05:00 +18°C° 0.2 mm 0 mps 749 mmHg 97%
    06:00 +18°C° 0.2 mm 0 mps 749 mmHg 97%
    07:00 +19°C° 0.1 mm 0 mps 750 mmHg 94%
    08:00 +20°C° 0.1 mm 0 mps 750 mmHg 92%
    09:00 +21°C° 0.1 mm 0 mps 750 mmHg 90%
    10:00 +24°C° 0.2 mm 1 mps 750 mmHg 84%
    11:00 +26°C° 0.2 mm 1 mps 749 mmHg 79%
    12:00 +27°C° 0.2 mm 1 mps 749 mmHg 74%
    13:00 +27°C° 0.2 mm 2 mps 748 mmHg 74%
    14:00 +27°C° 0.2 mm 2 mps 747 mmHg 74%
    15:00 +27°C° 0.2 mm 3 mps 746 mmHg 74%
    16:00 +26°C° 0.1 mm 2 mps 746 mmHg 80%
    17:00 +25°C° 0.1 mm 2 mps 746 mmHg 85%
    18:00 +23°C° 0.1 mm 2 mps 746 mmHg 91%
    19:00 +23°C° 0 mm 2 mps 747 mmHg 92%
    20:00 +22°C° 0 mm 1 mps 747 mmHg 93%
    21:00 +21°C° 0 mm 1 mps 748 mmHg 95%
    22:00 +21°C° 0 mm 1 mps 747 mmHg 95%
    23:00 +21°C° 0 mm 1 mps 747 mmHg 95%

    2 March, Monday

    Time Temperature Precipitation Wind Pressure Humidity
    00:00 +19°C° 0 mm 0 mps 747 mmHg 96%
    01:00 +21°C° 0 mm 1 mps 747 mmHg 96%
    02:00 +21°C° 0 mm 1 mps 746 mmHg 96%
    03:00 +21°C° 0 mm 1 mps 746 mmHg 96%
    04:00 +20°C° 0 mm 1 mps 746 mmHg 96%
    05:00 +20°C° 0 mm 1 mps 746 mmHg 96%
    06:00 +20°C° 0 mm 1 mps 746 mmHg 96%
    07:00 +22°C° 0 mm 1 mps 746 mmHg 89%
    08:00 +24°C° 0 mm 1 mps 747 mmHg 82%
    09:00 +26°C° 0 mm 1 mps 747 mmHg 75%
    10:00 +28°C° 0 mm 1 mps 747 mmHg 69%
    11:00 +29°C° 0 mm 1 mps 746 mmHg 62%
    12:00 +31°C° 0 mm 1 mps 745 mmHg 56%
    13:00 +31°C° 0 mm 2 mps 745 mmHg 57%
    14:00 +31°C° 0 mm 2 mps 744 mmHg 58%
    15:00 +31°C° 0 mm 2 mps 743 mmHg 58%
    16:00 +29°C° 0 mm 2 mps 743 mmHg 68%
    17:00 +27°C° 0 mm 2 mps 743 mmHg 78%
    18:00 +25°C° 0 mm 2 mps 743 mmHg 89%
    19:00 +24°C° 0 mm 1 mps 744 mmHg 91%
    20:00 +24°C° 0 mm 1 mps 744 mmHg 93%
    21:00 +23°C° 0 mm 1 mps 745 mmHg 95%
    22:00 +23°C° 0 mm 1 mps 744 mmHg 96%
    23:00 +23°C° 0 mm 1 mps 744 mmHg 96%
    Show more